• MPC Preparation (Info)

  • MPEC 2015-F145: 2015 FJ120

    The following Minor Planet Electronic Circular may be linked-to from your own Web pages, but must not otherwise be redistributed electronically.

    A form allowing access to any MPEC is at the bottom of this page.


    Read MPEC 2015-F144 Read MPEC 2015-F146


    M.P.E.C. 2015-F145                               Issued 2015 Mar. 29, 15:50 UT
    
         The Minor Planet Electronic Circulars contain information on unusual
             minor planets and routine data on comets.  They are published
       on behalf of Commission 20 of the International Astronomical Union by the
              Minor Planet Center, Smithsonian Astrophysical Observatory,
                              Cambridge, MA 02138, U.S.A.
    
                 Prepared using the Tamkin Foundation Computer Network
    
                                  MPC@CFA.HARVARD.EDU
                URL https://www.minorplanetcenter.net/    ISSN 1523-6714
    
                                      2015 FJ120
    
    Observations:
         K15FC0J* C2015 03 27.26586 11 51 46.43 +18 40 55.1          20.9 VqEF145G96
         K15FC0J  C2015 03 27.27420 11 51 48.79 +18 40 01.7          21.9 VqEF145G96
         K15FC0J  C2015 03 27.28255 11 51 51.20 +18 39 07.5          20.2 VqEF145G96
         K15FC0J  C2015 03 27.29088 11 51 53.52 +18 38 14.6          20.8 VqEF145G96
         K15FC0J  C2015 03 27.33387 11 52 05.75 +18 33 37.7          21.4 VqEF145G96
         K15FC0J  C2015 03 27.33528 11 52 06.14 +18 33 28.5          20.7 VqEF145G96
         K15FC0J  C2015 03 27.33665 11 52 06.54 +18 33 19.4          21.6 VqEF145G96
         K15FC0J  C2015 03 27.33806 11 52 06.91 +18 33 10.0          21.4 VqEF145G96
         K15FC0J  C2015 03 27.37335711 52 16.58 +18 29 16.9          20.0 RtEF145H01
         K15FC0J  C2015 03 27.38159411 52 18.96 +18 28 23.6          20.1 RtEF145H01
         K15FC0J  C2015 03 27.38766111 52 20.73 +18 27 44.2          20.1 RtEF145H01
         K15FC0J  C2015 03 27.39603611 52 23.18 +18 26 50.1          19.9 RtEF145H01
         K15FC0J KC2015 03 27.44659 11 52 38.53 +18 21 30.9          20.6 RoEF145291
         K15FC0J KC2015 03 27.44790 11 52 38.96 +18 21 21.9          20.9 RoEF145291
         K15FC0J KC2015 03 27.44921 11 52 39.33 +18 21 13.0          21.0 RoEF145291
         K15FC0J KC2015 03 28.19042711 56 39.94 +17 08 18.3          21.0 VuEF145H21
         K15FC0J KC2015 03 28.19819611 56 41.81 +17 07 35.2          21.3 VuEF145H21
         K15FC0J KC2015 03 28.20545711 56 43.54 +17 06 55.2          21.3 VuEF145H21
         K15FC0J  C2015 03 28.28960 11 57 06.73 +16 59 29.2          21.0 VqEF145G96
         K15FC0J  C2015 03 28.29638 11 57 08.24 +16 58 52.6          20.9 VqEF145G96
         K15FC0J  C2015 03 28.30317 11 57 09.85 +16 58 15.0          20.9 VqEF145G96
         K15FC0J  C2015 03 28.30995 11 57 11.40 +16 57 37.9          21.2 VqEF145G96
         K15FC0J  C2015 03 29.19749 12 01 10.99 +15 41 54.9          21.8 VqEF145G96
         K15FC0J  C2015 03 29.20303 12 01 12.06 +15 41 29.4                qEF145G96
         K15FC0J  C2015 03 29.20856 12 01 13.18 +15 41 03.4          21.7 VqEF145G96
         K15FC0J  C2015 03 29.21410 12 01 14.29 +15 40 37.2          21.6 VqEF145G96
    
    Observer details:
    291 LPL/Spacewatch II.  Observer A. F. Tubbiolo.  1.8-m f/2.7 reflector + CCD.
    G96 Mt. Lemmon Survey.  Observer R. A. Kowalski.  Measurers E. J. Christensen,
        D. C. Fuls, A. R. Gibbs, A. D. Grauer, R. E. Hill, J. A. Johnson,
        R. A. Kowalski, S. M. Larson, R. G. Matheny, F. C. Shelly.  1.5-m
        reflector + CCD.
    H01 Magdalena Ridge Observatory, Socorro.  Observer W. H. Ryan.  2.4-m f/8.9
        reflector + CCD.
    H21 Astronomical Research Observatory, Westfield.  Observer R. Holmes.
        Measurers L. Buzzi, T. Linder, S. Foglia, T. Vorobjov.  0.81-m f/4.0
        astrograph + CCD.
    
    Orbital elements:
    2015 FJ120                                               Earth MOID = 0.0108 AU
    Epoch 2015 June 27.0 TT = JDT 2457200.5                 MPC
    M  93.10682              (2000.0)            P               Q
    n   0.62871902     Peri.  328.57989     -0.42498551     -0.90510902
    a   1.3494754      Node   146.56491     +0.83526399     -0.39758043
    e   0.3586002      Incl.    1.33576     +0.34888592     -0.15068997
    P   1.57           H   26.2           G   0.15           U   7
    Residuals in seconds of arc
    150327 G96  0.1+  0.2+    150327 H01  0.2-  0.2-    150328 G96  0.2+  0.0
    150327 G96  0.2-  0.2+    150327 H01  0.2-  0.3-    150328 G96  0.6-  0.5+
    150327 G96  0.3+  0.4-    150327 H01  0.3-  0.1-    150328 G96  0.0   0.1+
    150327 G96  0.4-  0.2+    150327 291  0.1-  0.9+    150328 G96  0.1-  0.2+
    150327 G96  0.2+  0.0     150327 291  0.4+  0.3+    150329 G96  0.4+  0.2-
    150327 G96  0.1+  0.1-    150327 291  0.0   0.1-    150329 G96  0.3-  0.2+
    150327 G96  0.3+  0.4-    150328 H21  0.2+  0.3-    150329 G96  0.1-  0.1+
    150327 G96  0.2-  0.7-    150328 H21  0.2+  0.5-    150329 G96  0.0   0.2-
    150327 H01  0.0   0.3-    150328 H21  0.0   0.5-
    
    Ephemeris:
    2015 FJ120               a,e,i = 1.35, 0.36, 1                   q = 0.8656
    Date    TT    R. A. (2000) Decl.     Delta      r     Elong.  Phase     V
    2015 02 27    01 11 23.4 +09 05 39   0.1007  0.9179    42.1   133.7    27.1
    ...
    2015 03 14    02 59 19.9 +37 15 02   0.02890 0.9809    62.2   116.3    23.0
    ...
    2015 03 22    10 50 23.5 +34 35 15   0.03100 1.0206   141.2    37.7    20.2
    ...
    2015 03 28    11 55 41.5 +17 27 15   0.05809 1.0522   158.6    20.2    21.1
    2015 03 29    12 00 17.2 +15 58 42   0.06310 1.0576   159.7    19.1    21.3
    2015 03 30    12 04 10.3 +14 42 13   0.06820 1.0630   160.5    18.2    21.4
    ...
    2015 04 05    12 18 55.1 +09 38 05   0.1002  1.0961   162.3    16.1    22.3
    ...
    2015 04 13    12 28 51.0 +06 02 53   0.1464  1.1411   159.9    17.6    23.2
    ...
    2015 04 28    12 40 43.1 +02 12 56   0.2451  1.2263   150.7    23.7    24.7
    
    A. U. Tomatic                (C) Copyright 2015 MPC           M.P.E.C. 2015-F145
    

    Read MPEC 2015-F144 Read MPEC 2015-F146


    MPEC number:

    Enter an MPEC number in one of the following forms:

    • 1997-B01 (the full form)
    • J97B01 (the packed version of the full form)
    • B01 (the abbreviated form)